User: anonymous   Login
Location: Unspecified
(0.0000°N, 0.0000°E)
Time: 10:54:15
(UTC+00:00)
Language:

Altair - Orbit

View from above orbital plane
View from above orbital plane
View from above satellite
View from above satellite

Ground track
Ground track

The orbit data is extracted from the following two-line orbital elements,

1 00050U 60009B   14325.13552737 -.00000046  00000-0  38037-3 0  1401
2 00050 047.2323 318.1143 0113688 019.6263 340.8852 12.20086558422176
Epoch (UTC): 21 November 2014 03:15:09
Eccentricity: 0.0113688
inclination: 47.2323°
perigee height: 1501 km
apogee height: 1683 km
right ascension of ascending node: 318.1143°
argument of perigee: 19.6263°
revolutions per day: 12.20086558
mean anomaly at epoch: 340.8852°
orbit number at epoch: 42217

The dashed part of the orbit path shows where the satellite is in the earth's shadow,  

DLR